Tracking 19192 objects as of 21-Jun-2018
HD Live streaming from Space Station
objects crossing your sky now

FENGYUN 1C DEB

Track FENGYUN 1C DEB now!
10-day predictions


NORAD ID: 32113
Int'l Code: 1999-025CRF
Perigee: 754.8 km
Apogee: 1,125.3 km
Inclination: 99.3 °
Period: 103.7 minutes
Semi major axis: 7311 km
RCS: 0.0112 m2 (small)
Launch date: May 10, 1999
Source: People's Republic of China (PRC)
Launch site: Taiyaun Space Center, China (TSC)

Note: This is SATELLITE DEBRIS
aabbcc
Your satellite tracking list
Your tracking list is empty




NASA's NSSDC Master Catalog

Two Line Element Set (TLE):
1 32113U 99025CRF 18170.27886853  .00000032  00000-0  47997-4 0  9994
2 32113  99.3096 202.3177 0253322  69.6993 293.1195 13.88778273552331
Source of the keplerian elements: AFSPC